This is the latest recevied weather packets stored in our database for station/object K9RCP-20. If no packets are shown the sender has not sent any weather packets the latest 10 day(s).
| Time | Temp. | Humidity | Pressure | Rain* | Wind** | Luminosity | Snow |
|---|---|---|---|---|---|---|---|
| 1778168781 | 12.78° C | 69% | 1018.3 hPa | 0 mm | - | 199 W/m² | - |
| 1778168479 | 12.78° C | 69% | 1018.2 hPa | 0 mm | - | 197 W/m² | - |
| 1778168175 | 12.78° C | 69% | 1018.1 hPa | 0 mm | - | 182 W/m² | - |
| 1778167872 | 12.78° C | 70% | 1018.4 hPa | 0 mm | - | 200 W/m² | - |
| 1778167568 | 12.78° C | 70% | 1018.1 hPa | 0 mm | - | 169 W/m² | - |
| 1778167264 | 12.78° C | 71% | 1018.1 hPa | 0 mm | - | 161 W/m² | - |
| 1778166960 | 12.78° C | 71% | 1018.3 hPa | 0 mm | - | 159 W/m² | - |
| 1778166657 | 12.78° C | 71% | 1018.2 hPa | 0 mm | - | 154 W/m² | - |
| 1778166354 | 12.22° C | 72% | 1018.4 hPa | 0 mm | - | 142 W/m² | - |
| 1778166051 | 12.22° C | 72% | 1018.4 hPa | 0 mm | - | 132 W/m² | - |
| 1778165746 | 11.67° C | 72% | 1018.3 hPa | 0 mm | - | 145 W/m² | - |
| 1778165444 | 12.22° C | 72% | 1018.3 hPa | 0 mm | - | 115 W/m² | - |
| 1778165140 | 12.22° C | 72% | 1018.3 hPa | 0 mm | - | 105 W/m² | - |
| 1778164838 | 11.67° C | 72% | 1018.3 hPa | 0 mm | - | 94 W/m² | - |
| 1778164535 | 11.67° C | 72% | 1018.4 hPa | 0 mm | - | 90 W/m² | - |
| 1778164233 | 11.67° C | 72% | 1018.4 hPa | 0 mm | - | 80 W/m² | - |
| 1778163937 | 11.67° C | 72% | 1018.3 hPa | 0 mm | - | 71 W/m² | - |
| 1778163625 | 11.67° C | 73% | 1018.2 hPa | 0 mm | - | 59 W/m² | - |
| 1778163320 | 11.67° C | 73% | 1018.3 hPa | 0 mm | - | 58 W/m² | - |
| 1778163012 | 11.67° C | 74% | 1018.1 hPa | 0 mm | - | 51 W/m² | - |
| 1778162708 | 11.67° C | 74% | 1018.1 hPa | 0 mm | - | 43 W/m² | - |
| 1778162406 | 11.11° C | 74% | 1018 hPa | 0 mm | - | 38 W/m² | - |
| 1778162102 | 11.11° C | 74% | 1018.1 hPa | 0 mm | - | 34 W/m² | - |
| 1778161800 | 11.11° C | 74% | 1018 hPa | 0 mm | - | 29 W/m² | - |
| 1778161496 | 11.11° C | 74% | 1017.7 hPa | 0 mm | - | 24 W/m² | - |
* Rain latest hour (hover to see other rain measurements)
** Current wind speed in m/s (hover to see current wind gust speed)